Preview of NWS' New Version of Forecast
This preview is not operational and should not be used for support decisions.

Regional Weather Roundup (RWR)

Issued by National Weather Service (NWS)

                            
000
ASUS45 KBOI 182310
RWRID 

IDAHO REGIONAL WEATHER ROUNDUP
NATIONAL WEATHER SERVICE BOISE ID
500 PM MDT TUE JUN 18 2019

NOTE: "FAIR" INDICATES FEW OR NO CLOUDS BELOW 12000 FEET
WITH NO SIGNIFICANT WEATHER AND/OR OBSTRUCTIONS TO VISIBILITY

IDZ012-014-190000-
SOUTHWEST IDAHO

  
CITY           SKY/WX    TMP DP  RH WIND       PRES   REMARKS
BOISE          SUNNY     86  43  22 N13G22    29.98F                  
CALDWELL       SUNNY     87  47  24 NW10      29.96F                  
$$

IDZ016-017-190000-
SOUTHCENTRAL IDAHO

  
CITY           SKY/WX    TMP DP  RH WIND       PRES   REMARKS
BURLEY         SUNNY     81  40  23 W13G22    29.99F                  
JEROME         SUNNY     83  40  21 W18G29    30.01F                  
TWIN FALLS     SUNNY     84  39  20 NW20G28   30.01F                  
$$

IDZ019>023-190000-
SOUTHEAST IDAHO

  
CITY           SKY/WX    TMP DP  RH WIND       PRES   REMARKS
IDAHO FALLS    MOSUNNY   81  47  30 S22G28    29.97F                  
POCATELLO      MOSUNNY   80  40  23 SW24G30   30.00F                  
REXBURG        TSTM      74  49  41 S10       29.96F                  
$$

IDZ006-010-011-018-031-032-190000-
CENTRAL IDAHO MOUNTAINS

  
CITY           SKY/WX    TMP DP  RH WIND       PRES   REMARKS
MCCALL         MOSUNNY   72  41  32 W7        30.07S                  
HAILEY         MOSUNNY   75  50  41 S9G20     30.04F                  
STANLEY          N/A     73  37  27 NW8G17    30.12F                  
SALMON         MOSUNNY   82  44  26 N13       29.94F                  
CHALLIS        PTSUNNY   80  44  27 NE6       29.98F                  
$$

IDZ002-004-006-007-026-190000-
NORTHERN IDAHO

  
CITY           SKY/WX    TMP DP  RH WIND       PRES   REMARKS
LEWISTON       SUNNY     84  46  26 NW7       29.97F                  
LOWELL           N/A     84  51  31 SE6       29.93F                  
COEUR D'ALENE  MOSUNNY   82  48  30 VRB7      29.96F                  
MULLAN PASS    MOSUNNY   59  46  62 VRB5        N/A                   
$$